IRIDIUM 138 (43071 NORAD) Tracking and Keplerian Element Data

This shows tracking and keplerian element data for the satellite.

Feedback or suggestion? Click here.




ElementValue
Catalog43071
NameIRIDIUM 138
Epoch Orbit19587
Epoch Day262.1036947
Epoch Year2021
RAAN325.7186
Inclination86.3976
Eccentricity0.000208
Argument of Perigee90.1423
Mean Anonmoly270.0011
Mean Motion14.34218574
Decay Rate8.3E-07
L11 43071U 17083B 21262.10369470 .00000083 00000-0 22739-4 0 9995
L22 43071 86.3976 325.7186 0002080 90.1423 270.0011 14.34218574195877

Live tracking and technical data element details for IRIDIUM 138 (NORAD 43071). IRIDIUM 138 can be tracked NOW for your location showing map with azimuth and elevation plus other details from your city location.

Track the satellite on the map from your city or location and see movement details for azimuth, elevation, latitude, longitude, range, height, and movement on the map or in text.







IsCatalogInMostPopularTable: catalog: 43071, numindb: 608
Update: records affected: 1



GetName: 43071 IRIDIUM 138

Hit Count: updated at: Sun, 26 Sep 2021 00:29:54 GMT